CAPE
18 71 7 0 15 15 3 0 1 12 0 1 5 3 0 0 0 0 0 0 0 0 0 0 0 0 0 0 0 0 0 0 0 0 0 0 0 0 0 0 0 0 0 0 9
14 38 8 6 2 16 13 0 0 8 3 0 0 5 0 0 0 0 0 0 0 0 0 0 0 0 0 0 0 0 0 0 0 0 0 0 0 0 0 0 0 0 0 2 11
0 35 0 19 4 8 1 6 38 7 7 1 19 3 7 0 0 0 0 0 0 0 0 0 0 0 0 0 0 0 0 0 0 0 0 0 0 0 0 0 0 0 0 5 20
17 10 34 0 0 1 39 0 12 45 33 6 14 17 0 0 0 0 0 0 0 0 0 0 0 0 0 0 0 0 0 0 0 0 0 0 0 0 0 0 0 0 0 0 10
29 0 25 0 0 5 1 30 51 126 21 33 19 0 0 0 0 0 0 0 0 0 0 0 0 0 0 0 0 0 0 0 0 0 0 0 0 0 0 0 0 0 0 0 1
3 0 0 13 12 1 12 16 28 55 41 3 2 0 0 0 0 0 0 0 0 0 0 0 0 0 0 0 0 0 0 0 0 0 0 0 0 0 0 0 0 0 0 0 0
29 4 0 0 32 0 0 2 10 2 95 16 0 0 0 0 0 0 0 0 0 0 0 0 0 0 0 0 0 0 0 0 0 0 0 0 0 0 0 0 0 0 0 0 0
7 5 0 0 6 1 2 3 12 35 49 10 0 0 0 0 0 0 0 0 0 0 0 0 0 0 0 0 0 0 0 0 0 0 0 0 0 0 0 0 0 0 0 0 0
0 1 0 0 0 7 0 0 5 3 55 14 0 0 0 0 1 0 0 0 0 0 0 0 0 0 0 0 0 0 0 0 0 0 0 0 0 0 0 0 0 0 0 0 0
0 0 0 0 2 35 0 0 15 30 2 0 0 0 0 0 0 0 0 0 0 0 0 0 0 0 0 0 0 0 0 0 0 0 0 0 0 0 0 0 0 0 0 0 0
0 2 1 0 2 29 8 1 0 1 2 0 0 0 0 0 0 0 0 0 0 0 0 0 0 0 0 0 0 0 0 0 0 0 0 0 0 0 0 0 0 0 0 0 0
2 4 9 0 7 28 1 2 2 0 2 0 0 0 0 0 0 0 0 1 3 0 0 0 0 0 0 0 0 0 0 0 0 0 0 0 0 0 0 0 0 0 0 0 0
8 3 6 0 10 23 2 1 1 0 0 0 0 0 0 0 0 0 0 0 0 0 0 0 0 0 0 0 0 0 0 0 0 0 0 0 0 0 0 0 0 0 0 0 0
6 0 6 0 2 4 0 4 0 0 0 1 1 2 0 0 0 0 15 0 1 0 0 0 0 0 0 0 0 0 0 0 0 0 0 0 0 0 0 0 0 0 0 0 0
0 0 1 15 7 26 1 0 0 0 0 1 1 4 0 0 0 0 13 13 0 0 0 0 0 0 0 0 0 0 0 0 0 0 0 0 0 0 0 0 0 0 0 0 0
0 8 1 10 23 29 0 0 0 0 0 1 4 1 5 1 0 1 3 8 1 0 0 0 0 0 0 0 0 0 0 0 0 0 0 0 0 0 0 0 0 0 0 0 0
0 5 16 29 19 2 0 0 0 0 0 0 2 2 3 3 2 0 1 8 0 0 0 0 0 0 0 0 0 0 0 0 0 0 0 0 0 0 0 0 0 0 0 0 0
17 7 23 21 1 0 0 0 0 0 0 0 10 2 5 1 3 4 9 6 3 0 0 0 0 0 0 0 0 0 0 0 0 0 0 0 0 0 0 0 0 0 0 0 0
14 21 13 17 3 0 0 0 0 0 0 1 1 2 1 3 1 6 7 2 0 0 0 0 0 0 0 0 0 0 0 0 0 0 0 0 0 0 0 0 0 0 0 0 0
5 7 6 26 3 0 0 0 0 1 2 1 0 0 0 2 0 1 2 0 0 0 0 0 0 0 0 0 0 0 0 0 0 0 0 0 0 0 0 0 0 0 0 0 0
0 0 0 7 2 0 0 0 0 1 1 0 0 0 1 1 0 0 0 0 0 0 0 0 0 0 0 0 0 0 0 0 0 0 0 0 0 0 0 0 0 0 0 0 0
0 0 1 8 0 0 0 0 0 1 1 1 1 0 0 6 0 0 0 0 0 0 0 0 0 0 0 0 0 0 0 0 0 0 0 0 0 0 0 0 0 0 0 0 0
0 0 0 0 0 0 0 0 0 2 0 0 0 0 0 0 0 0 0 0 0 0 0 0 0 0 0 0 0 0 0 0 0 0 0 0 0 0 0 0 0 0 0 0 0
0 0 0 0 0 0 0 0 0 6 0 1 3 5 1 0 0 0 0 0 0 0 0 0 0 0 0 0 0 0 0 0 0 0 0 0 0 0 0 0 0 0 0 0 0
0 0 0 0 1 0 0 0 0 0 0 3 1 8 6 0 0 0 0 0 0 0 0 0 0 0 0 0 0 0 0 0 0 0 0 0 0 0 0 0 0 0 0 0 0
0 0 0 0 0 0 0 0 0 0 1 0 2 0 14 0 0 0 1 0 0 0 0 0 0 0 0 0 0 0 0 0 0 0 0 0 0 0 0 0 0 0 0 0 0
0 0 0 0 0 0 0 0 0 0 0 0 0 0 0 8 22 9 0 1 1 0 0 0 0 0 0 0 0 0 0 0 0 0 0 0 0 0 0 0 0 0 0 0 0
CIN
-13 0 -17 0 -1 -20 0 0 -3 -18 0 0 0 0 0 0 0 0 0 0 0 0 0 0 0 0 0 0 0 0 0 0 0 0 0 0 0 0 0 0 0 0 0 0 -215
-50 0 0 -21 0 -9 0 0 0 -7 -35 0 0 0 0 0 0 0 0 0 0 0 0 0 0 0 0 0 0 0 0 0 0 0 0 0 0 0 0 0 0 0 0 -155 -229
-5 -7 -2 -1 -17 -12 0 0 -20 -46 -27 0 -36 -1 -5 0 0 0 0 0 0 0 0 0 0 0 0 0 0 0 0 0 0 0 0 0 0 0 0 0 0 0 0 -262 -227
-5 -8 0 0 0 0 -21 -2 -33 -10 -3 -8 -9 -41 -13 0 -4 0 0 0 0 0 0 0 0 0 0 0 0 0 0 0 0 0 0 0 0 0 0 0 0 0 0 -130 -266
-2 -21 -1 0 0 -18 0 -9 0 -10 -8 -4 -33 0 0 0 0 0 0 0 0 0 0 0 0 0 0 0 0 0 0 0 0 0 0 0 0 0 0 0 0 0 0 0 -261
-1 0 0 -2 -2 -25 -1 0 -1 -1 -14 -7 -38 -18 0 0 0 0 0 0 0 0 0 0 0 0 0 0 0 0 0 0 0 0 0 0 0 0 0 0 0 0 0 0 0
-5 -1 0 0 0 0 0 0 0 -20 -32 -17 -79 0 0 0 0 0 0 0 0 0 0 0 0 0 0 0 0 0 0 0 0 0 0 0 0 0 0 0 0 0 0 0 0
-3 -6 0 0 -5 -5 -1 0 -4 -1 0 0 0 0 0 0 0 0 0 0 0 0 0 0 0 0 0 0 0 0 0 0 0 0 0 0 0 0 0 0 0 0 0 0 0
0 -4 0 0 0 -15 0 0 -7 -5 0 -1 0 0 0 0 -6 -19 0 0 0 0 0 0 0 0 0 0 0 0 0 0 0 0 0 0 0 0 0 0 0 0 0 0 0
0 0 0 0 -8 0 0 0 -8 0 0 0 0 0 0 0 0 -39 0 0 0 0 0 0 0 0 0 0 0 0 0 0 0 0 0 0 0 0 0 0 0 0 0 0 0
0 -6 -2 0 -18 -1 -3 0 0 -1 0 0 0 0 0 0 0 0 0 0 0 0 0 0 0 0 0 0 0 0 0 0 0 0 0 0 0 0 0 0 0 0 0 0 0
-6 -5 -3 0 -14 -3 -2 -3 0 0 0 0 0 0 0 0 0 0 0 -1 -1 0 0 0 0 0 0 0 0 0 0 0 0 0 0 0 0 0 0 0 0 0 0 0 0
-36 -3 -7 0 -9 -3 -10 -3 -5 0 0 0 0 0 0 0 0 0 0 0 0 0 0 0 0 0 0 0 0 0 0 0 0 0 0 0 0 0 0 0 0 0 0 0 0
-84 0 -10 0 -1 -3 -3 -25 0 0 0 0 -1 -1 0 0 0 0 -3 0 0 0 0 0 0 0 0 0 0 0 0 0 0 0 0 0 0 0 0 0 0 0 0 0 0
0 0 -6 -5 -3 -1 -4 0 0 0 0 0 0 -3 -6 0 0 0 -4 -3 0 0 0 0 0 0 0 0 0 0 0 0 0 0 0 0 0 0 0 0 0 0 0 0 0
0 -46 -9 -6 -5 -11 0 0 0 0 0 0 0 0 0 0 -1 -18 -5 -9 -9 0 0 0 0 0 0 0 0 0 0 0 0 0 0 0 0 0 0 0 0 0 0 0 0
0 -35 -35 -8 -5 -10 -20 -3 0 0 0 0 0 0 0 0 0 0 0 -2 0 0 0 0 0 0 0 0 0 0 0 0 0 0 0 0 0 0 0 0 0 0 0 0 0
-9 -24 -25 -15 -44 0 0 0 0 0 0 0 -1 0 0 0 0 0 0 -2 -15 0 0 0 0 0 0 0 0 0 0 0 0 0 0 0 0 0 0 0 0 0 0 0 0
-20 -14 -9 -5 -31 0 0 0 0 0 0 0 0 0 0 0 0 0 0 -1 0 0 0 0 0 0 0 0 0 0 0 0 0 0 0 0 0 0 0 0 0 0 0 0 0
-31 -25 -3 -5 -21 0 0 0 0 0 0 0 0 0 -1 0 0 0 -1 0 0 0 0 0 0 0 0 0 0 0 0 0 0 0 0 0 0 0 0 0 0 0 0 0 0
0 0 0 -7 -13 0 0 0 0 0 0 0 0 0 -1 -1 0 0 0 0 0 0 0 0 0 0 0 0 0 0 0 0 0 0 0 0 0 0 0 0 0 0 0 0 0
0 0 -1 -13 0 0 0 0 0 0 0 0 0 0 0 0 0 0 0 0 0 0 0 0 0 0 0 0 0 0 0 0 0 0 0 0 0 0 0 0 0 0 0 0 0
0 0 0 0 0 0 0 -6 0 -6 0 0 0 0 0 0 0 0 0 0 0 0 0 0 0 0 0 0 0 0 0 0 0 0 0 0 0 0 0 0 0 0 0 0 0
0 0 0 0 0 0 0 0 -1 -32 -5 -31 -10 -8 -3 0 0 0 0 0 0 0 0 0 0 0 0 0 0 0 0 0 0 0 0 0 0 0 0 0 0 0 0 0 0
0 0 0 0 0 0 0 0 0 0 0 -1 -2 -11 -8 0 0 0 0 0 0 0 0 0 0 0 0 0 0 0 0 0 0 0 0 0 0 0 0 0 0 0 0 0 0
0 0 0 0 0 0 0 0 0 0 -3 -1 -3 0 -29 0 0 0 0 0 0 0 0 0 0 0 0 0 0 0 0 0 0 0 0 0 0 0 0 0 0 0 0 0 0
0 0 0 0 0 0 0 0 0 0 0 0 0 -23 0 -5 -5 -20 0 0 -1 0 0 0 0 0 0 0 0 0 0 0 0 0 0 0 0 0 0 0 0 0 0 0 0
Wind_Speed
33 34 34 32 37 37 41 34 29 16 12 7 19 17 24 26 26 25 31 24 19 18 19 22 21 20 19 19 16 15 17 17 16 6 5 2 2 7 7 8 10 12 10 9 14
31 31 29 30 34 32 33 35 33 26 18 16 15 20 21 26 30 32 29 27 24 21 20 19 18 18 18 18 16 15 17 17 14 12 4 5 3 5 7 8 9 10 12 15 14
29 29 29 26 28 30 31 28 36 30 24 13 15 18 24 24 30 33 28 29 27 23 21 20 20 18 19 18 15 14 16 12 12 12 7 5 7 8 4 9 6 7 11 13 13
27 25 27 26 28 27 29 28 32 31 23 19 18 17 18 22 33 21 21 27 26 26 23 20 19 19 19 17 16 14 14 13 14 14 10 9 8 9 10 11 7 9 12 12 12
26 25 26 26 28 30 27 29 31 30 26 20 12 13 15 19 20 16 17 21 27 27 27 21 19 19 18 16 16 15 14 14 13 12 11 11 10 11 9 9 5 7 8 9 9
26 25 25 25 25 27 28 29 32 37 30 27 25 20 23 28 17 17 19 22 23 25 27 23 19 19 15 15 16 16 11 12 14 12 13 12 15 13 12 8 5 3 4 5 6
28 25 26 27 25 24 28 26 22 31 35 26 28 26 27 30 18 18 19 22 22 25 26 25 20 19 16 14 17 12 14 16 17 15 14 14 17 16 13 8 7 6 3 0 1
28 27 26 26 24 20 24 20 20 19 23 23 23 26 32 24 24 25 21 22 20 22 24 23 22 19 18 14 16 15 16 17 19 16 17 15 20 18 16 12 11 11 11 9 4
27 26 25 23 21 20 20 18 18 19 15 12 24 27 30 23 27 25 24 22 20 18 17 17 18 19 17 16 18 19 19 17 16 19 17 17 19 16 14 13 15 16 16 12 11
27 26 24 24 22 20 19 20 14 9 3 6 14 23 27 28 20 23 23 25 22 18 18 19 19 24 24 23 28 20 17 16 17 16 17 17 21 17 17 18 18 19 19 18 10
27 25 23 24 23 20 17 4 14 18 17 24 23 27 20 18 17 23 26 24 23 23 28 23 29 32 25 21 20 18 19 17 17 17 17 20 22 23 26 23 22 20 20 19 13
26 25 23 22 24 20 16 15 15 14 24 16 17 17 16 20 23 19 18 23 25 30 25 26 35 24 20 22 22 20 21 21 18 16 18 21 30 32 30 28 23 22 20 19 17
25 23 22 20 19 15 11 14 12 13 20 20 19 21 21 21 22 21 17 22 30 31 29 32 28 24 24 24 25 24 22 19 21 18 21 26 33 32 32 32 32 26 21 19 19
22 22 21 19 17 15 18 17 16 17 26 30 27 22 17 17 22 22 21 17 26 33 28 28 28 26 27 28 23 26 23 19 19 24 32 25 40 30 25 23 22 22 22 20 19
21 20 20 17 18 22 18 11 14 20 40 20 24 11 17 25 16 25 26 25 23 23 27 29 27 24 28 27 22 27 17 19 21 24 27 28 32 33 27 26 22 18 16 13 15
17 15 16 17 16 15 11 10 14 23 36 21 19 26 25 25 22 23 31 26 23 19 20 24 21 24 26 22 21 16 16 19 23 26 38 30 29 35 27 23 19 14 12 13 16
15 10 14 16 16 10 8 16 22 28 16 22 24 22 23 28 26 28 32 31 27 27 29 25 26 24 22 21 20 20 22 30 34 35 40 27 28 36 23 20 14 10 11 13 14
10 9 13 13 9 11 15 21 25 19 18 16 16 18 28 25 28 29 32 32 30 24 27 32 32 25 24 26 29 26 27 30 36 35 33 25 32 30 22 16 13 12 12 14 14
8 11 12 11 12 13 17 25 22 21 16 14 13 22 23 25 24 27 33 35 30 25 28 30 26 26 22 23 22 31 34 25 25 25 30 28 29 28 20 17 16 16 16 16 15
9 10 12 17 12 15 21 22 18 17 18 15 20 21 29 26 27 28 29 32 34 28 24 25 29 26 23 22 25 26 23 27 27 33 37 30 30 27 20 17 16 16 15 14 12
10 13 15 16 15 17 27 24 19 18 17 15 15 19 20 22 22 24 26 21 24 24 20 21 26 28 23 28 28 27 28 25 24 27 31 31 31 22 22 15 13 14 15 13 12
13 16 16 15 18 19 21 21 19 16 14 14 13 13 18 19 21 22 24 23 16 20 25 20 21 27 31 28 27 30 29 25 30 31 31 31 32 22 16 13 11 12 13 13 11
13 16 16 17 23 21 20 20 18 19 18 18 15 15 15 19 24 22 21 21 16 18 20 17 26 30 30 30 29 34 29 28 27 29 34 33 31 20 19 20 18 16 14 12 11
11 16 18 18 18 21 23 22 20 19 19 18 16 13 13 17 21 26 23 21 18 17 18 16 22 29 34 31 24 31 30 29 31 36 35 35 31 23 20 19 19 18 16 14 13
13 15 17 22 25 22 23 25 24 22 21 21 20 17 16 18 22 22 23 22 21 19 21 19 25 21 21 22 21 26 28 29 32 32 34 33 33 27 23 25 23 20 18 15 14
10 12 15 19 17 23 25 27 25 23 22 24 23 21 21 20 20 22 20 21 22 22 22 20 24 21 23 20 22 30 27 25 29 31 34 33 33 26 27 26 25 20 17 16 15
8 10 13 18 19 22 26 25 26 24 25 21 23 21 23 21 16 13 14 21 20 22 24 26 22 23 30 23 24 33 27 26 28 28 29 36 33 32 34 32 26 22 18 15 12
Wind_Direction
289 262 265 274 268 249 245 250 256 273 284 273 248 243 235 240 241 253 241 243 252 264 266 260 256 257 256 251 256 264 254 262 284 259 263 301 348 322 352 8 320 329 27 75 102
287 267 267 272 275 251 248 244 242 250 256 271 298 257 248 244 243 245 246 245 250 261 260 257 254 259 250 251 256 259 255 261 278 269 249 267 301 322 315 336 339 1 42 87 96
284 268 260 279 274 264 248 248 235 242 248 258 267 275 260 246 237 244 244 239 246 252 258 258 257 254 249 252 255 259 255 262 275 274 276 285 293 308 337 304 359 58 81 91 96
290 274 263 280 274 272 248 246 240 239 245 246 251 274 267 239 232 253 243 235 244 246 248 253 252 248 248 246 253 255 265 263 268 270 272 286 298 295 301 299 319 99 102 96 102
286 282 265 277 274 267 267 247 240 235 232 231 256 254 246 241 233 256 251 240 230 236 237 245 245 246 247 250 248 256 257 267 268 276 278 279 283 287 292 319 27 97 100 102 105
285 289 264 268 265 271 260 253 239 232 229 230 238 261 258 239 265 264 254 237 241 235 235 240 246 246 251 249 251 252 256 260 268 272 273 272 271 278 285 314 346 78 101 99 113
286 283 278 264 272 274 263 266 247 237 232 234 242 255 259 249 270 269 259 249 242 234 232 239 246 244 246 247 249 248 254 257 260 266 275 274 273 275 289 297 309 298 310 354 134
289 280 283 267 279 284 267 270 245 245 238 237 238 248 251 258 263 257 253 249 251 245 236 235 238 240 244 249 250 253 258 254 259 264 271 272 270 274 281 289 292 299 299 299 277
276 283 271 260 263 274 272 267 254 251 235 224 235 246 242 249 243 249 245 241 245 244 243 242 241 240 241 237 246 252 254 256 262 263 271 269 273 279 286 288 288 292 298 299 296
268 278 267 249 256 260 259 275 243 246 230 233 251 239 240 240 241 241 241 243 241 235 235 236 243 236 239 238 239 247 254 259 260 265 269 271 270 279 283 285 289 292 292 297 294
261 266 274 253 253 251 254 257 223 236 246 232 236 248 230 231 227 231 230 240 238 234 231 235 236 233 234 241 254 252 255 260 266 272 271 271 276 277 276 282 286 290 289 293 297
257 254 264 258 241 250 253 250 253 244 226 251 241 231 226 224 227 227 222 233 233 228 230 234 237 239 239 243 252 255 254 258 268 274 279 281 275 274 278 281 284 285 286 287 293
259 253 253 261 262 262 257 245 250 242 234 243 240 238 237 238 236 223 216 234 234 231 231 234 244 241 243 244 248 254 254 258 265 274 283 286 282 283 284 281 280 280 284 283 281
263 256 247 255 255 252 241 237 235 239 233 231 234 245 245 242 237 232 229 235 237 231 235 243 248 237 242 245 245 251 260 260 266 272 273 285 278 285 292 295 293 286 281 280 283
257 258 246 252 259 232 243 248 250 232 225 240 235 246 235 232 239 228 226 239 234 235 236 240 240 234 240 244 246 257 256 262 271 275 279 279 284 284 289 290 293 293 295 293 291
255 262 255 250 260 253 230 239 237 233 232 244 235 231 225 239 239 224 224 237 241 242 242 244 249 247 249 250 250 246 254 270 275 276 272 275 278 284 288 291 293 298 304 300 299
248 263 258 250 252 226 227 235 230 235 250 239 233 225 226 231 232 223 222 227 230 230 235 242 245 251 250 239 245 245 248 261 265 267 271 281 278 279 292 299 294 290 304 309 309
237 256 267 264 244 241 242 234 233 241 245 252 237 216 234 225 234 227 224 229 235 238 232 238 244 242 244 242 246 240 249 258 263 265 272 282 276 286 290 292 300 304 305 310 311
224 248 262 256 252 255 247 230 239 237 255 244 218 222 233 229 234 230 229 230 235 238 240 240 248 242 244 247 240 243 249 261 267 279 277 279 283 288 292 292 295 298 301 304 307
227 248 261 243 261 255 237 237 245 246 252 249 240 240 231 228 231 234 230 239 237 240 249 245 242 248 247 250 249 252 247 256 266 267 270 279 280 283 286 288 295 300 302 305 308
244 250 262 255 266 252 232 237 244 253 257 256 255 244 242 232 239 235 234 251 235 237 251 244 250 246 247 248 244 249 251 261 269 271 271 276 282 292 290 293 299 300 302 303 306
253 249 261 262 250 251 244 247 248 258 267 265 265 265 246 237 242 242 239 252 235 233 242 252 254 249 249 257 257 254 258 254 261 267 270 278 282 298 304 309 311 313 312 307 306
258 257 265 263 245 248 252 250 251 254 263 258 267 265 264 249 247 245 242 251 229 229 237 247 252 248 254 258 255 252 257 256 265 270 268 271 281 290 293 300 305 307 309 306 305
282 258 261 263 265 252 243 246 246 252 254 256 255 264 272 261 256 247 240 244 233 235 250 255 257 253 250 258 252 252 251 255 257 265 269 271 278 281 286 292 299 303 303 301 297
290 276 266 257 253 256 250 250 249 253 255 254 256 263 265 264 263 249 245 240 245 237 248 258 255 262 265 266 260 260 255 249 254 260 267 272 271 276 282 289 292 296 299 294 291
313 298 275 268 269 254 252 248 247 251 256 253 254 252 256 259 261 262 254 244 243 239 242 254 257 260 263 271 269 266 262 256 257 263 268 275 276 280 288 287 287 288 289 290 287
1 321 293 273 264 256 256 255 250 253 253 259 252 254 256 259 268 272 271 264 257 241 238 245 253 255 256 269 273 270 261 261 267 266 270 269 273 276 278 282 286 283 284 286 285